Theta_e
320 320 319 319 319 319 319 320 321 321 321 321 322 323 324 325 327 328 329 330 331 331 331 330 330 331 331 332 332 332 333 332 333 333 333 332 330 329 330 331 330 330
319 319 318 318 318 318 318 319 319 319 319 320 321 322 323 324 325 326 328 329 329 330 330 330 330 330 330 330 331 331 331 331 332 332 333 333 331 330 331 331 330 331
317 317 317 318 318 317 317 317 318 318 318 318 319 320 321 322 323 324 326 327 328 329 329 329 329 329 330 330 329 330 330 331 331 331 331 332 332 332 332 332 332 332
316 315 315 316 316 316 315 316 316 317 317 317 317 318 318 319 320 321 322 324 326 327 327 328 329 329 329 329 329 329 330 330 330 329 329 330 331 332 332 332 333 332
315 315 314 314 314 314 314 314 314 315 315 315 315 315 316 316 318 319 319 321 322 322 323 326 328 328 328 329 328 328 329 329 329 329 329 329 329 330 331 331 332 332
314 313 313 313 313 313 313 313 313 313 313 313 313 313 313 314 315 316 317 317 318 318 319 321 323 325 328 328 328 328 328 329 329 328 328 328 328 329 330 331 330 330
312 312 312 312 312 311 312 312 311 311 311 312 311 311 311 312 313 313 314 314 314 315 316 317 319 321 324 325 325 326 327 329 329 328 328 328 329 330 330 330 330 329
311 311 311 311 311 310 310 310 310 309 310 310 309 309 309 309 310 310 311 311 311 311 312 314 316 317 317 318 318 319 321 324 327 328 328 328 329 330 329 329 330 329
310 310 309 310 309 309 309 309 309 309 308 308 308 308 308 308 308 308 308 308 308 308 308 310 313 313 313 313 313 313 315 317 321 324 326 328 329 329 328 327 329 330
309 309 309 309 308 308 308 308 308 308 307 307 307 307 307 306 306 306 306 306 306 306 306 307 309 310 309 310 309 309 310 313 316 319 323 326 328 328 328 327 328 329
309 308 308 308 308 307 307 307 307 307 307 307 306 306 306 305 305 304 305 304 304 304 304 305 307 307 305 305 305 306 307 309 312 315 319 323 326 328 328 327 328 328
308 308 307 307 307 307 307 306 306 306 306 306 305 305 305 304 304 304 303 303 303 303 302 303 305 304 301 300 301 303 305 307 309 313 316 319 323 326 328 328 328 329
307 307 307 306 306 306 306 306 306 305 305 305 305 304 304 304 303 303 303 302 302 301 301 302 303 301 298 298 298 300 302 304 307 310 313 317 320 324 326 328 328 328
306 306 306 306 306 306 305 305 304 304 304 305 305 304 303 303 303 303 302 301 301 301 300 301 301 299 297 297 297 297 299 302 305 308 310 313 317 321 325 327 328 328
306 305 305 305 305 305 305 304 304 303 304 304 304 304 303 303 303 303 302 301 300 300 299 299 300 298 297 297 296 296 297 299 303 306 307 310 314 319 322 325 327 328
305 305 305 305 305 304 304 304 304 303 303 303 303 303 303 303 303 303 302 301 300 299 299 299 299 298 297 297 297 297 297 298 302 306 307 309 312 315 319 323 325 327
304 305 305 305 304 304 304 304 304 303 303 303 302 302 302 302 302 302 302 300 300 299 299 299 298 297 297 297 298 299 299 300 303 306 308 309 310 311 316 321 323 325
304 304 304 304 304 303 303 303 303 303 303 303 302 301 301 301 302 302 301 300 300 299 299 299 298 297 297 297 298 300 302 303 304 305 307 308 308 309 313 318 321 324
304 303 303 304 303 303 302 302 302 302 303 303 302 301 300 301 301 301 300 300 299 299 299 298 298 297 297 297 298 299 302 303 302 302 305 308 309 310 313 316 319 322
303 303 303 303 303 302 302 301 301 301 302 302 302 301 300 301 300 300 299 299 298 298 298 298 297 297 297 297 297 299 301 302 300 300 303 306 307 310 312 314 317 320
302 302 302 303 303 302 302 301 301 301 301 302 302 301 300 300 300 299 299 298 298 298 297 297 297 296 297 297 298 298 299 300 299 299 300 302 303 306 308 310 312 316
302 302 302 302 302 301 301 301 301 300 300 301 301 300 300 300 300 299 299 298 297 297 297 297 296 296 296 297 297 298 298 298 298 298 298 299 300 301 303 306 308 310
301 301 301 302 301 301 300 300 300 301 300 300 300 300 300 300 300 299 298 298 297 297 297 297 296 296 296 296 297 297 297 297 297 297 298 298 298 299 300 303 305 306
301 301 301 301 301 301 300 299 300 300 300 300 300 300 300 300 299 299 298 298 298 297 297 296 296 296 296 296 296 296 297 296 296 297 297 297 297 298 298 300 303 304
301 301 301 301 301 301 300 300 299 300 300 300 300 299 299 300 299 299 298 298 298 298 297 296 296 296 295 296 296 296 296 296 296 296 296 297 297 297 297 298 300 302
302 301 301 301 301 301 300 300 299 299 299 300 300 299 299 299 299 299 298 298 298 298 297 296 296 295 295 295 296 296 295 296 296 295 295 296 297 296 296 297 298 299
Wind_Speed
18 18 21 20 18 18 18 18 19 20 21 22 21 23 24 23 23 23 23 22 21 21 20 20 19 18 18 19 20 20 20 20 20 20 19 20 21 23 25 27 28 29
21 21 22 21 19 20 19 18 19 19 21 22 22 23 23 23 23 24 24 24 24 23 22 22 21 19 18 18 20 21 21 21 20 20 21 22 21 22 23 26 28 28
24 24 24 22 21 22 22 21 20 21 22 23 23 24 24 23 23 23 23 24 24 24 23 24 23 21 19 19 20 20 20 20 19 20 22 23 23 23 24 26 27 28
24 25 26 24 23 24 25 23 22 23 23 24 25 25 25 25 24 24 24 23 24 25 25 25 24 23 22 21 21 21 21 21 21 20 20 21 22 23 24 25 26 27
25 26 26 25 25 26 25 25 25 24 25 26 25 25 25 25 25 25 25 25 25 26 26 26 25 25 24 24 23 22 22 23 23 20 19 21 23 24 25 25 26 27
26 26 26 25 26 27 26 26 27 26 27 27 26 26 26 25 25 25 26 27 27 27 27 27 27 27 26 25 24 23 22 22 23 20 19 22 24 26 26 26 27 27
26 26 26 26 27 29 28 28 29 29 28 27 27 28 27 26 26 25 26 27 27 28 27 27 28 29 27 26 25 25 23 22 23 23 22 22 25 26 26 25 26 27
27 28 28 28 29 30 30 29 30 30 28 28 28 29 28 27 27 26 27 27 27 29 28 27 28 28 26 26 26 26 25 22 23 24 23 23 24 25 24 23 25 28
27 28 29 29 30 31 31 30 30 30 29 29 29 29 29 28 28 27 28 28 28 30 29 28 27 25 25 29 30 30 29 26 23 22 22 24 24 23 21 22 24 26
28 29 30 29 30 31 31 30 30 29 29 29 30 29 29 29 29 28 28 29 29 30 30 30 27 25 29 33 35 35 34 31 27 23 21 22 24 24 22 21 24 26
29 30 31 30 30 31 31 30 30 30 29 29 30 30 30 30 31 30 29 29 29 28 30 29 27 28 34 39 39 38 36 33 30 27 23 20 21 23 23 22 24 27
29 30 31 31 30 30 30 30 30 30 29 29 29 30 30 31 32 32 30 29 29 28 28 27 26 30 38 43 43 40 37 34 32 29 26 22 19 20 22 24 25 27
29 29 29 30 29 29 30 30 30 29 29 28 28 30 31 31 31 31 31 30 29 28 28 26 25 30 39 43 44 43 38 35 32 30 28 25 21 19 21 23 24 25
28 28 28 27 27 28 29 29 30 30 29 28 27 29 31 31 30 30 31 32 30 28 28 26 24 30 39 42 43 43 40 36 32 30 28 26 24 20 19 21 23 24
27 27 27 27 27 28 28 29 30 31 30 29 28 29 29 30 28 28 31 33 32 30 29 27 26 31 40 43 42 41 40 37 32 29 28 26 24 22 20 19 21 23
26 25 26 27 28 28 27 27 28 29 30 30 29 29 29 29 27 27 30 32 32 32 31 28 28 35 42 45 44 42 39 36 33 29 26 25 24 22 20 19 20 22
26 26 25 25 28 28 27 26 26 27 28 28 29 30 30 29 27 27 29 30 30 31 31 28 31 39 46 47 48 46 40 35 31 27 24 24 23 22 20 20 20 21
27 27 26 25 26 29 29 27 26 25 25 26 28 30 30 29 28 27 28 30 29 30 30 30 34 42 47 48 50 48 40 34 31 29 27 26 24 22 21 21 21 21
27 28 28 25 25 27 29 29 28 27 25 24 27 30 30 29 29 28 28 29 29 30 30 30 34 42 47 48 51 50 43 37 34 32 30 29 27 25 23 22 22 21
27 28 28 26 24 26 29 29 30 30 26 23 26 30 31 28 27 28 29 29 29 30 30 29 34 42 46 47 50 51 47 42 37 33 31 30 28 25 23 23 23 22
27 27 28 27 25 26 28 28 29 31 29 25 25 29 30 27 26 27 28 30 30 30 30 30 33 41 45 46 48 49 48 45 41 37 34 33 31 29 27 24 21 19
27 27 27 26 26 27 27 27 27 28 29 26 25 27 28 26 26 26 27 29 30 31 32 32 34 40 44 45 46 47 47 46 44 40 37 37 36 33 31 29 25 21
24 24 24 24 24 25 26 26 25 25 26 26 25 25 27 26 26 26 26 27 29 31 33 34 35 39 43 44 45 45 44 43 44 42 37 37 37 34 32 32 29 25
21 22 23 22 22 23 24 25 25 24 23 24 24 24 25 26 26 27 27 28 29 31 32 34 36 39 42 43 44 44 42 39 41 43 38 36 37 36 35 35 32 28
20 20 21 20 20 20 22 24 25 25 22 22 22 23 24 25 25 26 29 29 29 31 32 33 35 38 41 42 42 43 43 39 39 42 40 36 37 37 37 37 36 33
18 18 19 19 19 18 20 23 24 24 23 22 20 21 23 23 24 26 28 29 29 30 32 33 34 37 39 41 40 40 42 41 39 40 39 35 35 36 37 38 38 37
Wind_Direction
39 43 38 33 30 24 16 12 10 8 4 2 358 355 353 354 354 352 352 351 349 346 343 339 331 317 304 295 295 296 294 290 286 282 269 247 233 230 233 236 235 231
41 39 32 31 34 29 24 21 17 12 8 5 3 0 358 357 353 350 351 353 352 350 346 342 337 329 320 309 303 300 297 296 290 277 266 255 244 234 234 238 240 238
38 35 31 31 33 29 25 23 20 17 14 11 8 5 2 359 355 352 351 351 351 350 348 344 339 335 331 323 317 309 301 297 291 279 270 264 255 246 241 242 244 243
36 35 33 32 31 28 26 24 21 19 16 14 11 8 6 3 360 357 355 353 352 352 351 347 343 341 337 330 325 318 307 300 295 287 278 271 263 254 247 245 244 242
37 36 35 33 31 29 28 26 24 21 17 16 13 10 7 4 2 360 358 357 354 353 355 355 350 346 342 336 331 323 313 307 304 296 282 274 268 258 251 247 244 242
39 38 35 35 34 30 28 27 26 23 19 18 15 12 9 5 3 1 359 358 355 354 356 357 357 354 348 341 335 328 320 313 310 303 289 281 272 261 256 251 246 245
40 37 35 36 35 32 30 29 27 25 22 20 18 15 12 8 5 2 360 359 358 358 357 356 360 1 357 351 345 338 330 318 311 306 297 289 276 262 256 252 247 246
39 38 36 36 35 32 32 31 28 26 24 23 20 17 14 12 7 3 1 360 360 0 359 360 3 5 4 3 359 353 345 332 320 310 300 293 281 265 257 255 250 246
40 39 37 37 36 34 32 31 28 27 26 24 22 19 16 14 10 6 4 3 3 3 1 4 6 2 359 359 357 354 351 346 339 324 307 297 285 269 259 257 251 245
39 37 36 37 37 35 33 31 28 27 27 25 23 20 18 16 12 10 8 6 5 4 2 5 6 359 354 354 353 351 349 347 345 340 325 308 291 276 268 263 253 244
38 36 34 34 36 34 33 32 30 28 27 25 24 22 19 16 14 13 11 9 8 5 3 5 6 360 356 355 352 350 348 344 342 340 336 324 302 284 276 272 260 248
37 35 34 33 33 33 32 32 30 28 27 26 25 23 20 17 16 15 13 11 9 8 5 5 5 1 359 358 355 351 347 343 339 336 334 331 316 294 283 278 270 257
38 36 35 34 34 34 33 32 30 27 27 26 25 24 21 18 17 17 16 13 10 10 9 8 7 2 360 357 355 352 348 343 338 333 331 329 321 307 293 284 275 263
39 37 35 35 36 36 34 32 31 28 27 25 24 23 20 19 18 17 17 15 13 11 9 9 8 3 359 356 353 351 348 343 338 331 327 325 320 312 299 287 278 269
40 39 38 36 36 35 34 33 32 30 29 27 25 22 19 18 18 18 18 16 16 14 11 10 8 2 358 356 354 351 346 341 336 330 324 320 317 312 302 290 280 273
41 40 40 40 39 35 33 32 31 30 30 29 26 23 20 18 18 19 19 17 16 15 13 13 9 2 360 0 358 355 349 343 337 330 323 316 311 308 302 293 284 276
40 39 40 43 42 38 35 32 30 30 30 31 29 26 23 20 19 20 20 18 16 15 14 13 8 3 3 4 3 1 356 350 345 338 329 319 308 300 296 294 289 282
39 38 39 42 44 42 37 33 30 28 30 33 31 26 24 23 23 22 20 18 17 15 14 12 7 5 6 7 6 6 3 360 358 351 342 333 319 305 297 295 294 289
41 39 37 40 45 43 40 36 31 28 28 33 31 26 24 25 25 25 23 20 19 15 13 11 6 6 9 9 8 8 7 8 5 356 350 345 334 318 306 300 297 294
43 41 38 39 44 43 40 38 35 31 30 32 32 27 25 25 26 25 24 21 18 14 12 10 7 8 11 11 10 9 9 10 8 3 358 355 349 339 328 315 306 301
44 42 40 41 44 41 38 38 37 36 33 31 31 28 25 26 26 23 20 19 16 13 12 11 9 10 13 13 12 10 10 12 12 9 4 1 1 359 355 345 331 320
47 44 42 44 46 42 39 36 36 38 36 33 33 30 26 26 26 22 19 19 18 16 15 12 10 11 13 14 13 11 10 12 13 11 5 3 4 3 1 360 353 345
51 47 45 47 48 45 42 38 35 36 36 35 35 31 27 26 25 22 20 18 18 17 14 11 10 11 12 13 14 13 11 10 11 11 7 3 4 3 3 4 2 356
53 49 47 47 48 46 42 38 36 35 34 35 36 33 29 28 26 22 19 16 14 14 12 9 9 10 11 13 14 14 13 10 9 10 8 4 3 4 4 5 6 4
54 50 47 46 48 47 40 36 36 35 32 33 34 32 30 30 26 23 20 17 14 12 11 9 8 8 11 13 14 15 15 12 9 9 7 4 3 4 4 5 6 7
54 50 48 46 46 49 43 35 34 35 33 30 30 30 30 29 26 23 21 19 17 14 12 10 8 8 10 12 14 15 15 14 11 9 6 3 2 4 4 3 4 6